| time (UTC) | temp F | wind direction | speed knots | gust knots | rain 1hr in | rain 24hr in | rain mn in | humidity % | barometer mb |
| 20260906131457 | 84 | 220 | 2.6 | 5.2 | 0.00 | 0.00 | 0.00 | 70 | 1013.7 |
| 20260906130953 | 84 | 289 | 4.3 | 7.0 | 0.00 | 0.00 | 0.00 | 69 | 1013.4 |
| 20260906130451 | 83 | 210 | 1.7 | 1.7 | 0.00 | 0.00 | 0.00 | 72 | 1013.4 |
| 20260906125946 | 84 | 279 | 2.6 | 4.3 | 0.00 | 0.00 | 0.00 | 71 | 1013.4 |
| 20260906125444 | 84 | 299 | 3.5 | 5.2 | 0.00 | 0.00 | 0.00 | 71 | 1013.4 |
| 20260906124943 | 85 | 267 | 2.6 | 2.6 | 0.00 | 0.00 | 0.00 | 70 | 1013.3 |
| 20260906124439 | 85 | 303 | 6.1 | 7.8 | 0.00 | 0.00 | 0.00 | 69 | 1013.3 |
| 20260906123939 | 85 | 285 | 5.2 | 7.8 | 0.00 | 0.00 | 0.00 | 69 | 1013.2 |
| 20260906123433 | 85 | 244 | 2.6 | 2.6 | 0.00 | 0.00 | 0.00 | 68 | 1013.4 |
| 20260906122933 | 84 | 323 | 3.5 | 4.3 | 0.00 | 0.00 | 0.00 | 69 | 1013.2 |
| 20260906122428 | 85 | 18 | 0.9 | 1.7 | 0.00 | 0.00 | 0.00 | 68 | 1013.2 |
| 20260906121925 | 85 | 307 | 2.6 | 4.3 | 0.00 | 0.00 | 0.00 | 70 | 1013.2 |
| 20260906121420 | 86 | 170 | 0.9 | 0.9 | 0.00 | 0.00 | 0.00 | 68 | 1013.4 |
| 20260906120917 | 86 | 312 | 6.1 | 7.8 | 0.00 | 0.00 | 0.00 | 66 | 1013.3 |
| 20260906120412 | 86 | 334 | 1.7 | 1.7 | 0.00 | 0.00 | 0.00 | 69 | 1013.4 |
| 20260906115908 | 86 | 143 | 1.7 | 1.7 | 0.00 | 0.00 | 0.00 | 68 | 1013.5 |
| 20260906115403 | 88 | 281 | 5.2 | 7.0 | 0.00 | 0.00 | 0.00 | 64 | 1013.3 |
| 20260906114903 | 87 | 263 | 1.7 | 2.6 | 0.00 | 0.00 | 0.00 | 65 | 1013.5 |
| 20260906114358 | 88 | 12 | 3.5 | 5.2 | 0.00 | 0.00 | 0.00 | 65 | 1013.3 |
| 20260906113854 | 87 | 280 | 2.6 | 4.3 | 0.00 | 0.00 | 0.00 | 65 | 1013.1 |
| 20260906113352 | 89 | 224 | 3.5 | 5.2 | 0.00 | 0.00 | 0.00 | 65 | 1013.4 |
| 20260906112848 | 89 | 213 | 8.7 | 12.2 | 0.00 | 0.00 | 0.00 | 63 | 1013.3 |
| 20260906112344 | 87 | 200 | 1.7 | 4.3 | 0.00 | 0.00 | 0.00 | 65 | 1013.1 |
| 20260906111843 | 89 | 201 | 4.3 | 7.0 | 0.00 | 0.00 | 0.00 | 64 | 1013.3 |
| 20260906111337 | 88 | 249 | 5.2 | 9.6 | 0.00 | 0.00 | 0.00 | 63 | 1013.4 |
| 20260906110827 | 87 | 284 | 3.5 | 4.3 | 0.00 | 0.00 | 0.00 | 66 | 1013.5 |
| 20260906110323 | 87 | 232 | 1.7 | 2.6 | 0.00 | 0.00 | 0.00 | 66 | 1013.4 |
| 20260906105822 | 87 | 150 | 1.7 | 2.6 | 0.00 | 0.00 | 0.00 | 65 | 1013.4 |
| 20260906105318 | 87 | 158 | 2.6 | 4.3 | 0.00 | 0.00 | 0.00 | 66 | 1013.4 |
| 20260906104813 | 87 | 205 | 2.6 | 4.3 | 0.00 | 0.00 | 0.00 | 65 | 1013.6 |
| 20260906104311 | 88 | 272 | 6.1 | 7.8 | 0.00 | 0.00 | 0.00 | 64 | 1013.4 |
| 20260906103809 | 88 | 164 | 2.6 | 4.3 | 0.00 | 0.00 | 0.00 | 64 | 1013.3 |
| 20260906103303 | 89 | 163 | 4.3 | 6.1 | 0.00 | 0.00 | 0.00 | 63 | 1013.5 |
| 20260906102759 | 88 | 144 | 4.3 | 7.0 | 0.00 | 0.00 | 0.00 | 65 | 1013.7 |
| 20260906102258 | 87 | 187 | 2.6 | 4.3 | 0.00 | 0.00 | 0.00 | 64 | 1013.6 |
| 20260906101753 | 88 | 308 | 5.2 | 7.0 | 0.00 | 0.00 | 0.00 | 63 | 1013.7 |
| 20260906101248 | 88 | 269 | 4.3 | 7.8 | 0.00 | 0.00 | 0.00 | 63 | 1013.6 |
| 20260906100744 | 87 | 156 | 2.6 | 2.6 | 0.00 | 0.00 | 0.00 | 65 | 1013.7 |
| 20260906100243 | 86 | 254 | 3.5 | 4.3 | 0.00 | 0.00 | 0.00 | 65 | 1013.6 |
| 20260906095739 | 87 | 272 | 2.6 | 7.0 | 0.00 | 0.00 | 0.00 | 62 | 1013.7 |
| 20260906095234 | 88 | 287 | 4.3 | 7.0 | 0.00 | 0.00 | 0.00 | 63 | 1013.5 |
| 20260906094733 | 88 | 300 | 5.2 | 7.8 | 0.00 | 0.00 | 0.00 | 62 | 1013.3 |
| 20260906094228 | 88 | 215 | 5.2 | 7.8 | 0.00 | 0.00 | 0.00 | 62 | 1013.4 |
| 20260906093724 | 87 | 166 | 0.0 | 0.9 | 0.00 | 0.00 | 0.00 | 62 | 1013.6 |
| 20260906093214 | 89 | 264 | 3.5 | 5.2 | 0.00 | 0.00 | 0.00 | 61 | 1013.5 |
| 20260906092709 | 89 | 299 | 3.5 | 6.1 | 0.00 | 0.00 | 0.00 | 60 | 1013.7 |
| 20260906092209 | 89 | 222 | 6.1 | 7.8 | 0.00 | 0.00 | 0.00 | 58 | 1013.5 |
| 20260906091705 | 89 | 91 | 0.9 | 1.7 | 0.00 | 0.00 | 0.00 | 59 | 1013.4 |
| 20260906091201 | 88 | 199 | 4.3 | 7.0 | 0.00 | 0.00 | 0.00 | 61 | 1013.5 |
| 20260906090657 | 89 | 155 | 1.7 | 2.6 | 0.00 | 0.00 | 0.00 | 58 | 1013.7 |
| 20260906090155 | 89 | 167 | 0.9 | 1.7 | 0.00 | 0.00 | 0.00 | 59 | 1013.8 |
| 20260906085655 | 87 | 325 | 0.9 | 1.7 | 0.00 | 0.00 | 0.00 | 61 | 1013.9 |
| 20260906085149 | 88 | 317 | 4.3 | 5.2 | 0.00 | 0.00 | 0.00 | 61 | 1013.8 |
| 20260906084644 | 88 | 162 | 1.7 | 2.6 | 0.00 | 0.00 | 0.00 | 60 | 1013.5 |
| 20260906084143 | 89 | 171 | 3.5 | 5.2 | 0.00 | 0.00 | 0.00 | 60 | 1013.6 |
| 20260906083638 | 88 | 163 | 0.9 | 1.7 | 0.00 | 0.00 | 0.00 | 62 | 1013.8 |
| 20260906083133 | 87 | 146 | 2.6 | 4.3 | 0.00 | 0.00 | 0.00 | 62 | 1013.7 |
| 20260906082628 | 87 | 322 | 1.7 | 1.7 | 0.00 | 0.00 | 0.00 | 61 | 1013.7 |
| 20260906082124 | 87 | 178 | 5.2 | 8.7 | 0.00 | 0.00 | 0.00 | 62 | 1013.6 |
| 20260906081620 | 86 | 123 | 1.7 | 2.6 | 0.00 | 0.00 | 0.00 | 64 | 1013.7 |
| 20260906081115 | 87 | 154 | 2.6 | 4.3 | 0.00 | 0.00 | 0.00 | 63 | 1013.6 |
| 20260906080612 | 87 | 180 | 1.7 | 4.3 | 0.00 | 0.00 | 0.00 | 63 | 1013.9 |
| 20260906080108 | 86 | 162 | 4.3 | 6.1 | 0.00 | 0.00 | 0.00 | 68 | 1014.0 |
| 20260906075607 | 86 | 204 | 0.9 | 4.3 | 0.00 | 0.00 | 0.00 | 66 | 1014.1 |
| 20260906075101 | 85 | 151 | 0.9 | 0.9 | 0.00 | 0.00 | 0.00 | 68 | 1013.9 |
| 20260906074556 | 86 | 171 | 1.7 | 1.7 | 0.00 | 0.00 | 0.00 | 67 | 1014.1 |
| 20260906074049 | 86 | 273 | 3.5 | 5.2 | 0.00 | 0.00 | 0.00 | 65 | 1014.1 |
| 20260906073544 | 85 | 177 | 1.7 | 1.7 | 0.00 | 0.00 | 0.00 | 67 | 1014.0 |
| 20260906073040 | 85 | 151 | 3.5 | 4.3 | 0.00 | 0.00 | 0.00 | 65 | 1014.1 |
| 20260906072535 | 86 | 290 | 3.5 | 6.1 | 0.00 | 0.00 | 0.00 | 64 | 1014.3 |
| 20260906072031 | 85 | 169 | 1.7 | 2.6 | 0.00 | 0.00 | 0.00 | 65 | 1014.2 |
| 20260906071527 | 84 | 4 | 3.5 | 6.1 | 0.00 | 0.00 | 0.00 | 66 | 1014.2 |
| 20260906071022 | 84 | 223 | 4.3 | 5.2 | 0.00 | 0.00 | 0.00 | 67 | 1014.2 |
| 20260906070519 | 83 | 178 | 2.6 | 2.6 | 0.00 | 0.00 | 0.00 | 67 | 1014.2 |
| 20260906070014 | 84 | 223 | 2.6 | 4.3 | 0.00 | 0.00 | 0.00 | 70 | 1014.2 |
| 20260906065513 | 83 | 280 | 1.7 | 2.6 | 0.00 | 0.00 | 0.00 | 70 | 1014.3 |
| 20260906065009 | 82 | 184 | 1.7 | 2.6 | 0.00 | 0.00 | 0.00 | 74 | 1014.2 |
| 20260906064505 | 82 | 180 | 2.6 | 4.3 | 0.00 | 0.00 | 0.00 | 74 | 1014.1 |
| 20260906064000 | 82 | 328 | 3.5 | 6.1 | 0.00 | 0.00 | 0.00 | 74 | 1014.5 |
| 20260906063455 | 81 | 324 | 2.6 | 4.3 | 0.00 | 0.00 | 0.00 | 75 | 1014.3 |
| 20260906062949 | 82 | 263 | 1.7 | 1.7 | 0.00 | 0.00 | 0.00 | 75 | 1014.1 |
| 20260906062445 | 80 | 152 | 0.0 | 0.0 | 0.00 | 0.00 | 0.00 | 77 | 1014.3 |
| 20260906061940 | 80 | 163 | 0.9 | 0.9 | 0.00 | 0.00 | 0.00 | 77 | 1014.3 |
| 20260906061436 | 80 | 161 | 0.9 | 1.7 | 0.00 | 0.00 | 0.00 | 77 | 1014.2 |
| 20260906060930 | 80 | 196 | 2.6 | 4.3 | 0.00 | 0.00 | 0.00 | 77 | 1014.3 |
| 20260906060427 | 80 | 296 | 2.6 | 2.6 | 0.00 | 0.00 | 0.00 | 77 | 1014.3 |
| 20260906055923 | 80 | 172 | 2.6 | 2.6 | 0.00 | 0.00 | 0.00 | 79 | 1014.1 |
| 20260906055419 | 79 | 217 | 5.2 | 7.0 | 0.00 | 0.00 | 0.00 | 79 | 1014.0 |
| 20260906054914 | 79 | 179 | 1.7 | 1.7 | 0.00 | 0.00 | 0.00 | 80 | 1014.3 |
| 20260906054409 | 79 | 191 | 2.6 | 4.3 | 0.00 | 0.00 | 0.00 | 80 | 1013.9 |
| 20260906053905 | 79 | 291 | 1.7 | 2.6 | 0.00 | 0.00 | 0.00 | 81 | 1013.8 |
| 20260906053401 | 79 | 283 | 2.6 | 4.3 | 0.00 | 0.00 | 0.00 | 82 | 1013.7 |
| 20260906052856 | 79 | 91 | 0.9 | 1.7 | 0.00 | 0.00 | 0.00 | 82 | 1013.7 |
| 20260906052352 | 78 | 144 | 0.9 | 0.9 | 0.00 | 0.00 | 0.00 | 83 | 1013.6 |
| 20260906051849 | 78 | 244 | 1.7 | 1.7 | 0.00 | 0.00 | 0.00 | 83 | 1013.9 |
| 20260906051348 | 78 | 153 | 1.7 | 2.6 | 0.00 | 0.00 | 0.00 | 84 | 1013.9 |
| 20260906050845 | 77 | 162 | 0.9 | 2.6 | 0.00 | 0.00 | 0.00 | 85 | 1013.7 |
| 20260906050339 | 77 | 163 | 0.9 | 0.9 | 0.00 | 0.00 | 0.00 | 86 | 1013.6 |
| 20260906045838 | 77 | 236 | 0.9 | 0.9 | 0.00 | 0.00 | 0.00 | 86 | 1013.7 |
| 20260906045332 | 77 | 158 | 0.0 | 0.9 | 0.00 | 0.00 | 0.00 | 87 | 1013.8 |
| 20260906044829 | 77 | 176 | 0.9 | 0.9 | 0.00 | 0.00 | 0.00 | 87 | 1013.7 |
| 20260906044329 | 76 | 288 | 1.7 | 1.7 | 0.00 | 0.00 | 0.00 | 88 | 1013.4 |
| 20260906043826 | 76 | 199 | 0.0 | 0.0 | 0.00 | 0.00 | 0.00 | 88 | 1013.6 |
| 20260906043321 | 76 | 164 | 0.0 | 0.9 | 0.00 | 0.00 | 0.00 | 88 | 1013.7 |
| 20260906042820 | 76 | 152 | 0.0 | 0.0 | 0.00 | 0.00 | 0.00 | 88 | 1013.5 |
| 20260906042320 | 76 | 185 | 0.0 | 0.9 | 0.00 | 0.00 | 0.00 | 88 | 1013.5 |
| 20260906041815 | 76 | 155 | 0.0 | 0.9 | 0.00 | 0.00 | 0.00 | 88 | 1013.4 |
| 20260906041310 | 76 | 153 | 0.0 | 0.0 | 0.00 | 0.00 | 0.00 | 88 | 1013.2 |
| 20260906040805 | 76 | 148 | 0.9 | 0.9 | 0.00 | 0.00 | 0.00 | 88 | 1013.2 |
| 20260906040301 | 76 | 142 | 0.0 | 0.0 | 0.00 | 0.00 | 0.00 | 88 | 1013.4 |
| 20260906035756 | 76 | 145 | 0.0 | 0.9 | 0.00 | 0.00 | 0.00 | 89 | 1013.2 |
| 20260906035252 | 76 | 288 | 0.9 | 1.7 | 0.00 | 0.00 | 0.00 | 89 | 1013.3 |
| 20260906034752 | 75 | 160 | 0.9 | 0.9 | 0.00 | 0.00 | 0.00 | 89 | 1013.2 |
| 20260906034251 | 75 | 130 | 0.9 | 0.9 | 0.00 | 0.00 | 0.00 | 89 | 1013.3 |
| 20260906033748 | 75 | 100 | 0.0 | 0.9 | 0.00 | 0.00 | 0.00 | 89 | 1013.3 |
| 20260906033247 | 75 | 145 | 0.0 | 0.0 | 0.00 | 0.00 | 0.00 | 90 | 1013.2 |
| 20260906032743 | 75 | 134 | 0.0 | 0.9 | 0.00 | 0.00 | 0.00 | 90 | 1013.4 |
| 20260906032243 | 75 | 184 | 0.9 | 0.9 | 0.00 | 0.00 | 0.00 | 90 | 1013.1 |
| 20260906031738 | 75 | 253 | 0.9 | 0.9 | 0.00 | 0.00 | 0.00 | 90 | 1013.1 |
| 20260906031234 | 75 | 165 | 0.9 | 0.9 | 0.00 | 0.00 | 0.00 | 90 | 1012.8 |
| 20260906030729 | 75 | 133 | 0.0 | 0.0 | 0.00 | 0.00 | 0.00 | 90 | 1013.1 |
| 20260906030224 | 75 | 151 | 0.9 | 1.7 | 0.00 | 0.00 | 0.00 | 89 | 1013.1 |
| 20260906025723 | 75 | 202 | 0.9 | 1.7 | 0.00 | 0.00 | 0.00 | 89 | 1012.9 |
| 20260906025218 | 75 | 264 | 1.7 | 2.6 | 0.00 | 0.00 | 0.00 | 89 | 1013.2 |
| 20260906024717 | 75 | 272 | 0.9 | 0.9 | 0.00 | 0.00 | 0.00 | 89 | 1012.9 |
| 20260906024216 | 75 | 209 | 1.7 | 1.7 | 0.00 | 0.00 | 0.00 | 89 | 1013.2 |
| 20260906023712 | 75 | 119 | 0.9 | 1.7 | 0.00 | 0.00 | 0.00 | 89 | 1013.1 |
| 20260906023212 | 75 | 194 | 0.0 | 0.9 | 0.00 | 0.00 | 0.00 | 89 | 1013.1 |
| 20260906022707 | 75 | 209 | 0.9 | 1.7 | 0.00 | 0.00 | 0.00 | 89 | 1013.2 |
| 20260906022158 | 75 | 77 | 0.9 | 0.9 | 0.00 | 0.00 | 0.00 | 90 | 1012.9 |
| 20260906021654 | 75 | 260 | 0.9 | 0.9 | 0.00 | 0.00 | 0.00 | 90 | 1013.1 |
| 20260906021152 | 75 | 192 | 0.9 | 0.9 | 0.00 | 0.00 | 0.00 | 90 | 1013.3 |
| 20260906020647 | 75 | 196 | 0.0 | 0.9 | 0.00 | 0.00 | 0.00 | 90 | 1013.1 |
| 20260906020142 | 75 | 251 | 1.7 | 1.7 | 0.00 | 0.00 | 0.00 | 90 | 1013.1 |
| 20260906015636 | 75 | 135 | 0.9 | 1.7 | 0.00 | 0.00 | 0.00 | 90 | 1013.1 |
| 20260906015134 | 75 | 167 | 0.9 | 0.9 | 0.00 | 0.00 | 0.00 | 90 | 1012.9 |
| 20260906014629 | 75 | 353 | 0.9 | 0.9 | 0.00 | 0.00 | 0.00 | 90 | 1012.8 |
| 20260906014125 | 75 | 227 | 0.9 | 1.7 | 0.00 | 0.00 | 0.00 | 90 | 1012.9 |
| 20260906013620 | 75 | 248 | 1.7 | 1.7 | 0.00 | 0.00 | 0.00 | 90 | 1012.8 |
| 20260906013116 | 75 | 107 | 0.9 | 1.7 | 0.00 | 0.00 | 0.00 | 90 | 1013.1 |
| 20260906012610 | 76 | 264 | 1.7 | 1.7 | 0.00 | 0.00 | 0.00 | 89 | 1012.9 |
| 20260906012104 | 76 | 233 | 0.9 | 0.9 | 0.00 | 0.00 | 0.00 | 89 | 1012.8 |
| 20260906011600 | 76 | 299 | 1.7 | 1.7 | 0.00 | 0.00 | 0.00 | 89 | 1012.8 |
| 20260906011055 | 76 | 147 | 1.7 | 2.6 | 0.00 | 0.00 | 0.00 | 89 | 1012.8 |
| 20260906010550 | 76 | 213 | 1.7 | 2.6 | 0.00 | 0.00 | 0.00 | 89 | 1012.7 |
| 20260906010047 | 76 | 324 | 0.9 | 1.7 | 0.00 | 0.00 | 0.00 | 89 | 1012.7 |
| 20260906005546 | 76 | 244 | 0.0 | 0.9 | 0.00 | 0.00 | 0.00 | 89 | 1012.8 |
| 20260906005045 | 76 | 159 | 0.9 | 0.9 | 0.00 | 0.00 | 0.00 | 88 | 1012.8 |
| 20260906004544 | 76 | 295 | 0.9 | 1.7 | 0.00 | 0.00 | 0.00 | 88 | 1012.7 |
| 20260906004039 | 76 | 149 | 0.0 | 0.0 | 0.00 | 0.00 | 0.00 | 88 | 1013.2 |
| 20260906003535 | 76 | 265 | 1.7 | 1.7 | 0.00 | 0.00 | 0.00 | 88 | 1012.8 |
| 20260906003031 | 76 | 144 | 0.0 | 0.9 | 0.00 | 0.00 | 0.00 | 88 | 1013.2 |
| 20260906002530 | 76 | 269 | 1.7 | 1.7 | 0.00 | 0.00 | 0.00 | 88 | 1013.2 |
| 20260906002025 | 76 | 152 | 0.9 | 0.9 | 0.00 | 0.00 | 0.00 | 87 | 1013.1 |
| 20260906001521 | 76 | 229 | 0.9 | 1.7 | 0.00 | 0.00 | 0.00 | 87 | 1013.3 |
| 20260906001021 | 76 | 148 | 0.9 | 0.9 | 0.00 | 0.00 | 0.00 | 87 | 1012.9 |
| 20260906000517 | 76 | 130 | 0.9 | 1.7 | 0.00 | 0.00 | 0.00 | 88 | 1013.2 |
| 20260906000012 | 76 | 214 | 1.7 | 1.7 | 0.00 | 0.00 | 0.00 | 88 | 1012.9 |
| 20260905235506 | 76 | 250 | 1.7 | 1.7 | 0.00 | 0.00 | 0.00 | 88 | 1013.4 |
| 20260905235001 | 76 | 131 | 0.9 | 1.7 | 0.00 | 0.00 | 0.00 | 88 | 1013.3 |
| 20260905234456 | 76 | 308 | 0.9 | 0.9 | 0.00 | 0.00 | 0.00 | 88 | 1013.1 |
| 20260905233950 | 76 | 267 | 2.6 | 2.6 | 0.00 | 0.00 | 0.00 | 88 | 1013.3 |
| 20260905233446 | 76 | 155 | 1.7 | 1.7 | 0.00 | 0.00 | 0.00 | 88 | 1013.3 |
| 20260905232944 | 76 | 276 | 0.9 | 1.7 | 0.00 | 0.00 | 0.00 | 88 | 1013.3 |
| 20260905232441 | 76 | 280 | 0.9 | 1.7 | 0.00 | 0.00 | 0.00 | 88 | 1012.8 |
| 20260905231936 | 76 | 325 | 2.6 | 4.3 | 0.00 | 0.00 | 0.00 | 88 | 1013.1 |
| 20260905231432 | 76 | 126 | 0.9 | 0.9 | 0.00 | 0.00 | 0.00 | 88 | 1013.3 |
| 20260905230923 | 76 | 233 | 1.7 | 1.7 | 0.00 | 0.00 | 0.00 | 88 | 1013.1 |
| 20260905230420 | 76 | 270 | 1.7 | 2.6 | 0.00 | 0.00 | 0.00 | 88 | 1013.3 |
| 20260905225919 | 76 | 125 | 0.9 | 1.7 | 0.00 | 0.00 | 0.00 | 88 | 1013.1 |
| 20260905225415 | 76 | 311 | 1.7 | 1.7 | 0.00 | 0.00 | 0.00 | 88 | 1012.9 |
| 20260905224909 | 76 | 225 | 0.9 | 1.7 | 0.00 | 0.00 | 0.00 | 88 | 1013.1 |
| 20260905224406 | 76 | 274 | 1.7 | 1.7 | 0.00 | 0.00 | 0.00 | 88 | 1013.3 |
| 20260905223859 | 76 | 156 | 0.9 | 1.7 | 0.00 | 0.00 | 0.00 | 88 | 1013.1 |
| 20260905223357 | 76 | 296 | 0.9 | 0.9 | 0.00 | 0.00 | 0.00 | 88 | 1013.2 |
| 20260905222852 | 76 | 180 | 0.9 | 0.9 | 0.00 | 0.00 | 0.00 | 88 | 1013.4 |
| 20260905222350 | 76 | 310 | 2.6 | 2.6 | 0.00 | 0.00 | 0.00 | 88 | 1013.4 |
| 20260905221841 | 76 | 135 | 1.7 | 1.7 | 0.00 | 0.00 | 0.00 | 88 | 1013.4 |
| 20260905221338 | 76 | 337 | 0.9 | 1.7 | 0.00 | 0.00 | 0.00 | 88 | 1013.3 |
| 20260905220833 | 76 | 301 | 0.9 | 1.7 | 0.00 | 0.00 | 0.00 | 88 | 1013.3 |
| 20260905220329 | 76 | 150 | 0.9 | 0.9 | 0.00 | 0.00 | 0.00 | 88 | 1013.5 |
| 20260905215828 | 76 | 158 | 2.6 | 2.6 | 0.00 | 0.00 | 0.00 | 88 | 1013.5 |
| 20260905215324 | 76 | 343 | 0.9 | 1.7 | 0.00 | 0.00 | 0.00 | 88 | 1013.4 |
| 20260905214821 | 77 | 341 | 0.9 | 1.7 | 0.00 | 0.00 | 0.00 | 88 | 1013.4 |
| 20260905214315 | 77 | 303 | 2.6 | 2.6 | 0.00 | 0.00 | 0.00 | 88 | 1013.7 |
| 20260905213810 | 77 | 250 | 0.9 | 0.9 | 0.00 | 0.00 | 0.00 | 88 | 1013.7 |
| 20260905213307 | 77 | 152 | 1.7 | 2.6 | 0.00 | 0.00 | 0.00 | 88 | 1013.7 |
| 20260905212806 | 77 | 216 | 1.7 | 1.7 | 0.00 | 0.00 | 0.00 | 88 | 1013.6 |
| 20260905212301 | 77 | 21 | 0.9 | 1.7 | 0.00 | 0.00 | 0.00 | 88 | 1013.7 |
| 20260905211801 | 77 | 284 | 1.7 | 4.3 | 0.00 | 0.00 | 0.00 | 88 | 1013.9 |
| 20260905211256 | 77 | 183 | 0.9 | 1.7 | 0.00 | 0.00 | 0.00 | 88 | 1013.9 |
| 20260905210753 | 77 | 359 | 1.7 | 2.6 | 0.00 | 0.00 | 0.00 | 88 | 1013.9 |
| 20260905210253 | 77 | 258 | 2.6 | 2.6 | 0.00 | 0.00 | 0.00 | 88 | 1013.9 |
| 20260905205751 | 77 | 304 | 0.9 | 1.7 | 0.00 | 0.00 | 0.00 | 88 | 1013.8 |
| 20260905205246 | 77 | 184 | 1.7 | 2.6 | 0.00 | 0.00 | 0.00 | 88 | 1013.9 |
| 20260905204746 | 77 | 255 | 1.7 | 2.6 | 0.00 | 0.00 | 0.00 | 88 | 1013.7 |
| 20260905204242 | 77 | 319 | 2.6 | 2.6 | 0.00 | 0.00 | 0.00 | 88 | 1013.8 |
| 20260905203741 | 77 | 264 | 1.7 | 1.7 | 0.00 | 0.00 | 0.00 | 88 | 1013.9 |
| 20260905203237 | 77 | 240 | 0.9 | 0.9 | 0.00 | 0.00 | 0.00 | 88 | 1014.0 |
| 20260905202732 | 77 | 159 | 0.9 | 0.9 | 0.00 | 0.00 | 0.00 | 87 | 1014.1 |
| 20260905202227 | 77 | 273 | 2.6 | 2.6 | 0.00 | 0.00 | 0.00 | 87 | 1014.0 |
| 20260905201722 | 77 | 283 | 1.7 | 1.7 | 0.00 | 0.00 | 0.00 | 87 | 1013.9 |
| 20260905201217 | 77 | 159 | 0.0 | 0.9 | 0.00 | 0.00 | 0.00 | 87 | 1014.0 |
| 20260905200712 | 77 | 156 | 0.0 | 0.0 | 0.00 | 0.00 | 0.00 | 87 | 1013.9 |
| 20260905200208 | 77 | 151 | 0.0 | 0.9 | 0.00 | 0.00 | 0.00 | 87 | 1014.2 |
| 20260905195706 | 77 | 257 | 0.9 | 0.9 | 0.00 | 0.00 | 0.00 | 87 | 1013.9 |
| 20260905195201 | 77 | 235 | 0.0 | 0.9 | 0.00 | 0.00 | 0.00 | 87 | 1014.0 |
| 20260905194656 | 77 | 281 | 0.9 | 1.7 | 0.00 | 0.00 | 0.00 | 87 | 1014.0 |
| 20260905194155 | 77 | 154 | 0.9 | 0.9 | 0.00 | 0.00 | 0.00 | 87 | 1014.0 |
| 20260905193650 | 77 | 308 | 0.9 | 0.9 | 0.00 | 0.00 | 0.00 | 87 | 1014.0 |
| 20260905193145 | 77 | 143 | 0.0 | 0.0 | 0.00 | 0.00 | 0.00 | 87 | 1013.9 |
| 20260905192640 | 77 | 184 | 0.9 | 0.9 | 0.00 | 0.00 | 0.00 | 87 | 1014.1 |
| 20260905192137 | 77 | 278 | 0.0 | 0.9 | 0.00 | 0.00 | 0.00 | 87 | 1014.0 |
| 20260905191637 | 77 | 176 | 1.7 | 2.6 | 0.00 | 0.00 | 0.00 | 87 | 1014.0 |
| 20260905191134 | 77 | 292 | 1.7 | 1.7 | 0.00 | 0.00 | 0.00 | 86 | 1013.9 |
| 20260905190632 | 77 | 290 | 1.7 | 2.6 | 0.00 | 0.00 | 0.00 | 86 | 1014.1 |
| 20260905190127 | 77 | 257 | 1.7 | 1.7 | 0.00 | 0.00 | 0.00 | 86 | 1014.2 |
| 20260905185625 | 77 | 281 | 0.9 | 0.9 | 0.00 | 0.00 | 0.00 | 87 | 1014.3 |
| 20260905185120 | 77 | 307 | 1.7 | 1.7 | 0.00 | 0.00 | 0.00 | 87 | 1014.3 |
| 20260905184615 | 77 | 289 | 1.7 | 2.6 | 0.00 | 0.00 | 0.00 | 87 | 1013.9 |
| 20260905184114 | 77 | 112 | 0.0 | 0.9 | 0.00 | 0.00 | 0.00 | 87 | 1014.5 |
| 20260905183613 | 77 | 337 | 0.0 | 0.9 | 0.00 | 0.00 | 0.00 | 87 | 1014.2 |
| 20260905183108 | 77 | 94 | 0.0 | 0.0 | 0.00 | 0.00 | 0.00 | 87 | 1014.2 |
| 20260905182607 | 77 | 12 | 0.9 | 0.9 | 0.00 | 0.00 | 0.00 | 87 | 1014.1 |
| 20260905182102 | 77 | 136 | 0.0 | 0.9 | 0.00 | 0.00 | 0.00 | 86 | 1014.1 |
| 20260905181602 | 77 | 134 | 0.0 | 0.0 | 0.00 | 0.00 | 0.00 | 86 | 1013.9 |
| 20260905181101 | 77 | 153 | 0.0 | 0.0 | 0.00 | 0.00 | 0.00 | 86 | 1014.1 |
| 20260905180556 | 77 | 147 | 0.0 | 0.0 | 0.00 | 0.00 | 0.00 | 86 | 1014.0 |
| 20260905180051 | 78 | 154 | 0.0 | 0.0 | 0.00 | 0.00 | 0.00 | 86 | 1014.2 |
| 20260905175550 | 78 | 146 | 0.9 | 0.9 | 0.00 | 0.00 | 0.00 | 85 | 1014.1 |
| 20260905175046 | 78 | 153 | 0.0 | 0.0 | 0.00 | 0.00 | 0.00 | 85 | 1014.1 |
| 20260905174542 | 78 | 154 | 0.0 | 0.9 | 0.00 | 0.00 | 0.00 | 85 | 1014.1 |
| 20260905174037 | 78 | 155 | 0.0 | 0.0 | 0.00 | 0.00 | 0.00 | 85 | 1014.1 |
| 20260905173534 | 78 | 278 | 2.6 | 2.6 | 0.00 | 0.00 | 0.00 | 85 | 1014.2 |
| 20260905173029 | 78 | 346 | 0.9 | 1.7 | 0.00 | 0.00 | 0.00 | 84 | 1014.0 |
| 20260905172527 | 78 | 147 | 0.0 | 0.0 | 0.00 | 0.00 | 0.00 | 84 | 1013.9 |
| 20260905172023 | 78 | 146 | 0.0 | 0.9 | 0.00 | 0.00 | 0.00 | 84 | 1013.8 |
| 20260905171519 | 78 | 333 | 2.6 | 2.6 | 0.00 | 0.00 | 0.00 | 84 | 1014.0 |
| 20260905171015 | 78 | 313 | 3.5 | 4.3 | 0.00 | 0.00 | 0.00 | 84 | 1013.7 |
| 20260905170512 | 78 | 245 | 0.9 | 1.7 | 0.00 | 0.00 | 0.00 | 84 | 1013.7 |
| 20260905170007 | 78 | 317 | 0.9 | 1.7 | 0.00 | 0.00 | 0.00 | 84 | 1013.6 |
| 20260905165502 | 78 | 311 | 0.9 | 1.7 | 0.00 | 0.00 | 0.00 | 83 | 1013.6 |
| 20260905164956 | 78 | 237 | 0.9 | 1.7 | 0.00 | 0.00 | 0.00 | 83 | 1013.3 |
| 20260905164455 | 78 | 327 | 2.6 | 4.3 | 0.00 | 0.00 | 0.00 | 83 | 1013.5 |
| 20260905163950 | 79 | 173 | 1.7 | 1.7 | 0.00 | 0.00 | 0.00 | 82 | 1013.4 |
| 20260905163447 | 79 | 304 | 1.7 | 1.7 | 0.00 | 0.00 | 0.00 | 82 | 1013.3 |
| 20260905162943 | 79 | 181 | 0.0 | 0.9 | 0.00 | 0.00 | 0.00 | 82 | 1013.2 |
| 20260905162438 | 79 | 292 | 1.7 | 2.6 | 0.00 | 0.00 | 0.00 | 82 | 1013.2 |
| 20260905161933 | 79 | 322 | 4.3 | 5.2 | 0.00 | 0.00 | 0.00 | 81 | 1013.3 |
| 20260905161432 | 79 | 303 | 1.7 | 2.6 | 0.00 | 0.00 | 0.00 | 81 | 1013.3 |
| 20260905160930 | 79 | 76 | 0.9 | 1.7 | 0.00 | 0.00 | 0.00 | 80 | 1013.2 |
| 20260905160424 | 80 | 315 | 3.5 | 5.2 | 0.00 | 0.00 | 0.00 | 80 | 1013.1 |
| 20260905155918 | 80 | 223 | 1.7 | 1.7 | 0.00 | 0.00 | 0.00 | 79 | 1013.1 |
| 20260905155418 | 80 | 330 | 2.6 | 5.2 | 0.00 | 0.00 | 0.00 | 79 | 1013.4 |
| 20260905154917 | 80 | 62 | 1.7 | 2.6 | 0.00 | 0.00 | 0.00 | 78 | 1013.3 |
| 20260905154413 | 80 | 323 | 2.6 | 4.3 | 0.00 | 0.00 | 0.00 | 78 | 1013.3 |
| 20260905153908 | 81 | 339 | 0.9 | 0.9 | 0.00 | 0.00 | 0.00 | 78 | 1013.2 |
| 20260905153405 | 81 | 311 | 2.6 | 6.1 | 0.00 | 0.00 | 0.00 | 77 | 1012.9 |
| 20260905152904 | 81 | 323 | 2.6 | 2.6 | 0.00 | 0.00 | 0.00 | 76 | 1013.1 |
| 20260905152403 | 82 | 261 | 3.5 | 5.2 | 0.00 | 0.00 | 0.00 | 75 | 1013.2 |
| 20260905151859 | 82 | 193 | 2.6 | 4.3 | 0.00 | 0.00 | 0.00 | 75 | 1013.2 |
| 20260905151354 | 83 | 344 | 3.5 | 5.2 | 0.00 | 0.00 | 0.00 | 74 | 1012.9 |
| 20260905150849 | 83 | 156 | 2.6 | 5.2 | 0.00 | 0.00 | 0.00 | 73 | 1013.1 |
| 20260905150343 | 83 | 325 | 1.7 | 2.6 | 0.00 | 0.00 | 0.00 | 73 | 1013.2 |
| 20260905145840 | 84 | 203 | 0.9 | 1.7 | 0.00 | 0.00 | 0.00 | 72 | 1013.1 |
| 20260905145334 | 84 | 312 | 3.5 | 7.0 | 0.00 | 0.00 | 0.00 | 71 | 1013.2 |
| 20260905144834 | 84 | 308 | 5.2 | 9.6 | 0.00 | 0.00 | 0.00 | 71 | 1013.1 |
| 20260905144329 | 86 | 323 | 0.9 | 1.7 | 0.00 | 0.00 | 0.00 | 68 | 1012.9 |
| 20260905143828 | 85 | 252 | 2.6 | 5.2 | 0.00 | 0.00 | 0.00 | 69 | 1013.1 |
| 20260905143322 | 86 | 311 | 4.3 | 7.0 | 0.00 | 0.00 | 0.00 | 66 | 1013.2 |
| 20260905142822 | 86 | 143 | 2.6 | 2.6 | 0.00 | 0.00 | 0.00 | 67 | 1013.1 |
| 20260905142316 | 86 | 276 | 2.6 | 4.3 | 0.00 | 0.00 | 0.00 | 66 | 1013.1 |
| 20260905141812 | 85 | 261 | 2.6 | 2.6 | 0.00 | 0.00 | 0.00 | 68 | 1012.9 |
| 20260905141307 | 87 | 323 | 4.3 | 7.8 | 0.00 | 0.00 | 0.00 | 66 | 1012.7 |
| 20260905140803 | 87 | 67 | 3.5 | 4.3 | 0.00 | 0.00 | 0.00 | 66 | 1012.7 |
| 20260905140302 | 86 | 195 | 1.7 | 2.6 | 0.00 | 0.00 | 0.00 | 66 | 1012.7 |
| 20260905135801 | 86 | 267 | 2.6 | 4.3 | 0.00 | 0.00 | 0.00 | 65 | 1012.7 |
| 20260905135257 | 87 | 328 | 1.7 | 2.6 | 0.00 | 0.00 | 0.00 | 66 | 1012.7 |
| 20260905134757 | 87 | 310 | 1.7 | 1.7 | 0.00 | 0.00 | 0.00 | 65 | 1012.9 |
| 20260905134251 | 87 | 350 | 1.7 | 4.3 | 0.00 | 0.00 | 0.00 | 64 | 1012.6 |
| 20260905133745 | 87 | 309 | 4.3 | 6.1 | 0.00 | 0.00 | 0.00 | 65 | 1012.9 |
| 20260905133241 | 87 | 302 | 3.5 | 6.1 | 0.00 | 0.00 | 0.00 | 64 | 1012.8 |
| 20260905132740 | 88 | 298 | 2.6 | 2.6 | 0.00 | 0.00 | 0.00 | 64 | 1012.7 |
| 20260905132236 | 88 | 297 | 2.6 | 4.3 | 0.00 | 0.00 | 0.00 | 64 | 1012.7 |